"Pseudo-MPEC" for C3LMHV2

Created 2020 Oct 19 9:07:15 UT using Find_Orb

Click here for an explanation of pseudo-MPECs

 
 Astrometry: 
     C3LMHV2  C2020 10 16C.bTr.()gao0`Oh6fo_kKZp2B7)h(C2QNT#7\`$w/i^_WtK'3RmfF52
     C3LMHV2  C2020 10 16?i#2_yx_PL9-=OHBMWeepB9B#L80s%O\+NB+L[5SOwp$El+VWJMTF52
     C3LMHV2  C2020 10 16cI1iaA@pYWVaSah4PucMEhLlM)#x0W;Yi+td!o54Lkv%,9\9Wd^yF52
     C3LMHV2  C2020 10 17.33809702 58 04.85 -01 28 23.3    ~AH8q 20.86GVNEOCPG96
     C3LMHV2  C2020 10 17.34327902 58 05.67 -01 28 50.6    ~AH8q 20.96GVNEOCPG96
     C3LMHV2  C2020 10 17.34845102 58 06.45 -01 29 18.2    ~AH8q 21.26GVNEOCPG96
     C3LMHV2  C2020 10 17.35362602 58 07.25 -01 29 46.2    ~AH8q 20.76GVNEOCPG96
     C3LMHV2 KC2020 10 17.45009902 58 22.34 -01 38 21.0    ~AHB7 20.94GVNEOCPV06
     C3LMHV2 KC2020 10 17.45133502 58 22.50 -01 38 27.7    ~AHB7 21.11GVNEOCPV06
     C3LMHV2 KC2020 10 17.45257402 58 22.71 -01 38 34.0    ~AHB7 20.28GVNEOCPV06
     C3LMHV2 KC2020 10 17.45381102 58 22.89 -01 38 40.7    ~AHB7 21.06GVNEOCPV06
     C3LMHV2 KC2020 10 18.34580103 01 01.91 -02 57 54.6    ~AI8q 21.25GVNEOCPI52
     C3LMHV2 KC2020 10 18.34887203 01 02.41 -02 58 10.9    ~AI8q 20.83GVNEOCPI52
     C3LMHV2 KC2020 10 18.35194203 01 02.86 -02 58 27.0    ~AI8q 20.99GVNEOCPI52
     C3LMHV2 KC2020 10 196*Ls.$]?@bAstrometry%kM`b;2S7k9/^OH;redacted;9`:*kgWL01
     C3LMHV2 KC2020 10 19ykclick;re1[j.qp2N##sp2XE4s9N4where?U.rIEf5Vk4'.^96aL01
     C3LMHV2 KC2020 10 19p01\BVpfor;explanationIE)F8Uk9X6Ympi9*qGhd7)[!n=CJh_L01
     C3LMHV2 KC2020 10 19.29498103 03 47.42 -04 21 47.4    ~AJ7b 21.08GVNEOCPI52
     C3LMHV2 KC2020 10 19.29805303 03 47.89 -04 22 02.9    ~AJ7b 21.45GVNEOCPI52
     C3LMHV2 KC2020 10 19.30112303 03 48.36 -04 22 19.6    ~AJ7b 21.01GVNEOCPI52

Station data:
(F52) Pan-STARRS 2, Haleakala  (N20.707384 W156.255910)  US/Hawaii. 1.8-m
   Ritchey-Chrétien + CCD.
(G96) Mt. Lemmon Survey  (N32.442754 W110.788720)  US/Arizona.  Observers T.
   A. Pruyne, B. M. Africano, E. J. Christensen, G. A. Farneth, D. C. Fuls,
   A. R. Gibbs, A. D. Grauer, H. Gröller, J. A. Johnson, R. A. Kowalski, S.
   M. Larson, G. J. Leonard, D. Rankin, R. L. Seaman, F. C. Shelly. 1.5-m
   reflector + 10K CCD.
(I52) Steward Observatory, Mt. Lemmon Station  (N32.442547 W110.788920)
   US/Arizona.  Observers T. A. Pruyne, B. M. Africano, E. J. Christensen, G.
   A. Farneth, D. C. Fuls, A. R. Gibbs, A. D. Grauer, H. Gröller, J. A.
   Johnson, R. A. Kowalski, S. M. Larson, G. J. Leonard, D. Rankin, R. L.
   Seaman, F. C. Shelly. 1.0-m reflector + CCD.
(L01) Višnjan Observatory, Tičan  (N45.290900 E13.749300)  Croatia.
   Observers K. Korlević, E. Pettarin. Measurer E. Pettarin. 1.0-m f/2.9
   reflector + CCD.
(V06) Catalina Sky Survey-Kuiper  (N32.416847 W110.732550)  US/Arizona.
   Observers T. A. Pruyne, B. M. Africano, E. J. Christensen, G. A. Farneth,
   D. C. Fuls, A. R. Gibbs, A. D. Grauer, H. Gröller, J. A. Johnson, R. A.
   Kowalski, S. M. Larson, G. J. Leonard, D. Rankin, R. L. Seaman, F. C.
   Shelly. 1.55-m reflector + CCD.

Orbital elements:  C3LMHV2
   Perihelion 2020 Nov 5.652161 +/- 0.0807 TT = 15:39:06 (JD 2459159.152161)
Epoch 2020 Oct 19.0 TT = JDT 2459141.5   Earth MOID: 0.1365   AutoNEOCP
M 350.13975244 +/- 0.08             (J2000 ecliptic)
n   0.55858584 +/- 0.00291          Peri.  207.91837 +/- 0.08
a   1.46019020 +/- 0.00507          Node   196.33780 +/- 0.019
e   0.2354743 +/- 0.00205           Incl.   12.51332 +/- 0.08
P   1.76/644.47d           H 24.3   G  0.15   U  8.8  
q 1.11635282 +/- 0.000887    Q 1.80402757 +/- 0.00921
From 20 observations 2020 Oct. 16-19; mean residual 0".34
Residuals in arcseconds: 
201016 F52  .00   .33+    201017 V06  .41+  .13-    201019 L01  .13-  .22+    
201016 F52  .36-  .49-    201017 V06  .13-  .24-    201019 L01  .45-  .37+    
201016 F52  .00   .10+    201017 V06  .07+  .07+    201019 L01  1.1-  .59+    
201017 G96  .13+  .09-    201017 V06  .17-  .03-    201019 I52  .34+  .72-    
201017 G96  .35+  .28+    201018 I52  .02-  .24-    201019 I52  .41+  .04+    
201017 G96  .01+  .29+    201018 I52  .46+  .20-    201019 I52  .50+  .42-    
201017 G96  .04-  .07-    201018 I52  .19+  .03+    

Ephemerides (geocentric):
Date (UTC) HH   RA              Dec         delta   r     elong  mag " sig PA
---- -- -- --  -------------   -----------  ------ ------ -----  --- ---- ---
2020 10 19 09  03 03 59.789   -04 28 12.48  .14136 1.1246 153.9 21.4 .336 173
2020 10 19 10  03 04 06.939   -04 31 52.36  .14136 1.1246 153.9 21.4 .341 172
2020 10 19 11  03 04 14.083   -04 35 32.15  .14137 1.1245 153.8 21.4 .347 172
2020 10 19 12  03 04 21.223   -04 39 11.86  .14137 1.1245 153.8 21.4 .353 171
2020 10 19 13  03 04 28.358   -04 42 51.49  .14138 1.1245 153.8 21.4 .359 171
2020 10 19 14  03 04 35.487   -04 46 31.03  .14139 1.1244 153.7 21.4 .366 170
2020 10 19 15  03 04 42.612   -04 50 10.48  .14140 1.1244 153.7 21.4 .372 170
2020 10 19 16  03 04 49.732   -04 53 49.84  .14140 1.1243 153.7 21.4 .379 169
2020 10 19 17  03 04 56.846   -04 57 29.12  .14141 1.1243 153.6 21.4 .386 168
2020 10 19 18  03 05 03.956   -05 01 08.30  .14142 1.1243 153.6 21.4 .392 168
2020 10 19 19  03 05 11.060   -05 04 47.39  .14143 1.1242 153.5 21.4 .400 167
2020 10 19 20  03 05 18.160   -05 08 26.38  .14144 1.1242 153.5 21.4 .407 167
2020 10 19 21  03 05 25.254   -05 12 05.28  .14145 1.1242 153.5 21.4 .414 166
2020 10 19 22  03 05 32.344   -05 15 44.08  .14146 1.1241 153.4 21.4 .422 166
2020 10 19 23  03 05 39.428   -05 19 22.79  .14147 1.1241 153.4 21.4 .430 165
2020 10 20 00  03 05 46.507   -05 23 01.40  .14148 1.1240 153.4 21.4 .438 165
2020 10 20 01  03 05 53.581   -05 26 39.90  .14149 1.1240 153.3 21.4 .446 164
2020 10 20 02  03 06 00.650   -05 30 18.31  .14150 1.1240 153.3 21.4 .454 164
2020 10 20 03  03 06 07.714   -05 33 56.62  .14151 1.1239 153.3 21.4 .463 164
2020 10 20 04  03 06 14.773   -05 37 34.82  .14152 1.1239 153.2 21.4 .472 163
2020 10 20 05  03 06 21.827   -05 41 12.91  .14153 1.1239 153.2 21.4 .481 163
2020 10 20 06  03 06 28.875   -05 44 50.90  .14155 1.1238 153.1 21.4 .490 162
2020 10 20 07  03 06 35.919   -05 48 28.78  .14156 1.1238 153.1 21.4 .499 162
2020 10 20 08  03 06 42.957   -05 52 06.56  .14157 1.1237 153.1 21.4 .509 161
2020 10 20 09  03 06 49.990   -05 55 44.22  .14158 1.1237 153.0 21.4 .518 161
2020 10 20 10  03 06 57.018   -05 59 21.78  .14160 1.1237 153.0 21.4 .528 161
2020 10 20 11  03 07 04.041   -06 02 59.22  .14161 1.1236 153.0 21.4 .538 160
2020 10 20 12  03 07 11.059   -06 06 36.55  .14162 1.1236 152.9 21.4 .548 160
2020 10 20 13  03 07 18.071   -06 10 13.77  .14164 1.1236 152.9 21.4 .559 159
2020 10 20 14  03 07 25.078   -06 13 50.87  .14165 1.1235 152.8 21.4 .569 159
2020 10 20 15  03 07 32.080   -06 17 27.85  .14167 1.1235 152.8 21.4 .580 159
2020 10 20 16  03 07 39.077   -06 21 04.72  .14168 1.1234 152.8 21.4 .591 158
2020 10 20 17  03 07 46.069   -06 24 41.47  .14170 1.1234 152.7 21.4 .602 158
2020 10 20 18  03 07 53.055   -06 28 18.10  .14171 1.1234 152.7 21.4 .613 158
2020 10 20 19  03 08 00.037   -06 31 54.61  .14173 1.1233 152.7 21.4 .625 157
2020 10 20 20  03 08 07.013   -06 35 30.99  .14174 1.1233 152.6 21.4 .636 157
2020 10 20 21  03 08 13.983   -06 39 07.26  .14176 1.1233 152.6 21.4 .648 157
2020 10 20 22  03 08 20.949   -06 42 43.39  .14177 1.1232 152.5 21.4 .660 156
2020 10 20 23  03 08 27.909   -06 46 19.41  .14179 1.1232 152.5 21.4 .673 156
2020 10 21 00  03 08 34.864   -06 49 55.29  .14181 1.1232 152.5 21.4 .685 156
2020 10 21 01  03 08 41.814   -06 53 31.05  .14183 1.1231 152.4 21.4 .698 155
2020 10 21 02  03 08 48.758   -06 57 06.68  .14184 1.1231 152.4 21.4 .710 155
2020 10 21 03  03 08 55.697   -07 00 42.18  .14186 1.1230 152.3 21.4 .723 155
2020 10 21 04  03 09 02.631   -07 04 17.55  .14188 1.1230 152.3 21.4 .737 154
2020 10 21 05  03 09 09.559   -07 07 52.78  .14190 1.1230 152.3 21.4 .750 154
2020 10 21 06  03 09 16.483   -07 11 27.89  .14192 1.1229 152.2 21.4 .764 154
2020 10 21 07  03 09 23.401   -07 15 02.86  .14194 1.1229 152.2 21.4 .777 154
2020 10 21 08  03 09 30.313   -07 18 37.69  .14195 1.1229 152.1 21.4 .791 153